Voltar ao catálogo

COSMOS 468 DEB

AtivoLEO
NORAD 37887·DEBRIS·🇷🇺 Russia

Lançado Dec 17, 1971 de Plesetsk Cosmodrome

Loading…

Próximas Passagens (próximas 24 horas)

TLE

EnvelhecendoSource: Space-Track

Época: Sep 9, 2026, 20:55 UTC

1 37887U 71114F   26252.87220251  .00000208  00000-0  70661-4 0  9995
2 37887  74.0162 300.5744 0014705 310.3962  49.5910 14.42661886269684

Acompanhe COSMOS 468 DEB em tempo real com AllMySat

Download on the App Store